2023/01/19 00:00:00,42.7,-1.4
2023/01/19 00:10:00,42.7,-1.5
2023/01/19 00:20:00,42.6,-1.4
2023/01/19 00:30:00,42.6,-1.4
2023/01/19 00:40:00,42.6,-1.7
2023/01/19 00:50:00,42.8,-1.4
2023/01/19 01:00:00,42.8,-1.5
2023/01/19 01:10:00,42.8,-1.5
2023/01/19 01:20:00,42.8,-1.6
2023/01/19 01:30:00,42.7,-1.5
2023/01/19 01:40:00,42.7,-1.5
2023/01/19 01:50:00,42.7,-1.7
2023/01/19 02:00:00,42.7,-1.3
2023/01/19 02:10:00,42.7,-1.4
2023/01/19 02:20:00,42.7,-1.5
2023/01/19 02:30:00,42.7,-1.5
2023/01/19 02:40:00,42.6,-1.4
2023/01/19 02:50:00,42.6,-1.5
2023/01/19 03:00:00,42.6,-1.6
2023/01/19 03:10:00,42.6,-1.5
2023/01/19 03:20:00,42.6,-1.5
2023/01/19 03:30:00,42.6,-1.5
2023/01/19 03:40:00,42.6,-1.5
2023/01/19 03:50:00,42.6,-1.3
2023/01/19 04:00:00,42.6,-1.5
2023/01/19 04:10:00,42.6,-1.6
2023/01/19 04:20:00,42.6,-1.5
2023/01/19 04:30:00,42.5,-1.6
2023/01/19 04:40:00,42.5,-1.4
2023/01/19 04:50:00,42.5,-1.6
2023/01/19 05:00:00,42.6,-1.4
2023/01/19 05:10:00,42.6,-1.5
2023/01/19 05:20:00,42.5,-1.5
2023/01/19 05:30:00,42.6,-1.5
2023/01/19 05:40:00,42.6,-1.3
2023/01/19 05:50:00,42.6,-1.6
2023/01/19 06:00:00,42.5,-1.6
2023/01/19 06:10:00,42.4,-1.4
2023/01/19 06:20:00,42.4,-1.7
2023/01/19 06:30:00,42.4,-1.5
2023/01/19 06:40:00,42.4,-1.4
2023/01/19 06:50:00,42.3,-1.5
2023/01/19 07:00:00,42.3,-1.4
2023/01/19 07:10:00,42.3,-1.3
2023/01/19 07:20:00,42.3,-1.3
2023/01/19 07:30:00,42.3,-1.2
2023/01/19 07:40:00,42.3,-1.2
2023/01/19 07:50:00,42.3,-1.0
2023/01/19 08:00:00,42.3,-1.1
2023/01/19 08:10:00,42.3,-0.9
2023/01/19 08:20:00,42.3,-0.2
2023/01/19 08:30:00,42.2, 0.0
2023/01/19 08:40:00,42.2,-0.1
2023/01/19 08:50:00,42.2, 0.0
2023/01/19 09:00:00,42.2, 0.2
2023/01/19 09:10:00,42.2,-0.2
2023/01/19 09:20:00,42.3, 1.1
2023/01/19 09:30:00,42.2, 1.1
2023/01/19 09:40:00,42.2, 0.9
2023/01/19 09:50:00,42.3, 1.9
2023/01/19 10:00:00,42.3, 2.2
2023/01/19 10:10:00,42.1, 2.7
2023/01/19 10:20:00,41.8, 5.1
2023/01/19 10:30:00,42.2, 7.7
2023/01/19 10:40:00,42.6, 9.8
2023/01/19 10:50:00,42.5, 9.6
2023/01/19 11:00:00,42.2, 8.5
2023/01/19 11:10:00,41.8, 8.1
2023/01/19 11:20:00,41.8, 7.0
2023/01/19 11:30:00,41.6, 8.6
2023/01/19 11:40:00,41.6, 9.4
2023/01/19 11:50:00,41.5, 9.7
2023/01/19 12:00:00,41.6,11.6
2023/01/19 12:10:00,41.8,11.3
2023/01/19 12:20:00,41.7,12.3
2023/01/19 12:30:00,41.8, 8.5
2023/01/19 12:40:00,41.7,10.4
2023/01/19 12:50:00,41.7, 6.5
2023/01/19 13:00:00,41.5, 5.2
2023/01/19 13:10:00,41.3, 4.6
2023/01/19 13:20:00,41.5, 6.6
2023/01/19 13:30:00,41.4, 5.1
2023/01/19 13:40:00,41.2, 3.7
2023/01/19 13:50:00,41.2, 3.5
2023/01/19 14:00:00,41.1, 3.7
2023/01/19 14:10:00,41.2, 4.0
2023/01/19 14:20:00,41.2, 4.1
2023/01/19 14:30:00,41.1, 3.8
2023/01/19 14:40:00,41.1, 3.5
2023/01/19 14:50:00,41.1, 3.8
2023/01/19 15:00:00,41.1, 3.7
2023/01/19 15:10:00,41.0, 4.6
2023/01/19 15:20:00,40.9, 4.5
2023/01/19 15:30:00,40.9, 4.5
2023/01/19 15:40:00,40.9, 3.8
2023/01/19 15:50:00,40.9, 4.2
2023/01/19 16:00:00,40.8, 3.3
2023/01/19 16:10:00,40.6, 2.3
2023/01/19 16:20:00,40.6, 2.0
2023/01/19 16:30:00,40.5, 1.4
2023/01/19 16:40:00,40.6, 1.1
2023/01/19 16:50:00,40.6, 0.9
2023/01/19 17:00:00,40.6, 0.7
2023/01/19 17:10:00,40.5, 0.4
2023/01/19 17:20:00,40.5, 0.3
2023/01/19 17:30:00,40.5, 0.0
2023/01/19 17:40:00,40.5,-0.2
2023/01/19 17:50:00,40.5,-0.2
2023/01/19 18:00:00,40.5,-0.3
2023/01/19 18:10:00,40.4,-0.5
2023/01/19 18:20:00,40.4,-0.7
2023/01/19 18:30:00,40.5,-0.6
2023/01/19 18:40:00,40.6,-0.8
2023/01/19 18:50:00,40.5,-0.6
2023/01/19 19:00:00,40.5,-0.9
2023/01/19 19:10:00,40.4,-1.1
2023/01/19 19:20:00,40.5,-1.2
2023/01/19 19:30:00,40.4,-1.2
2023/01/19 19:40:00,40.4,-0.9
2023/01/19 19:50:00,40.4,-0.9
2023/01/19 20:00:00,40.4,-1.1
2023/01/19 20:10:00,40.4,-1.2
2023/01/19 20:20:00,40.4,-1.2
2023/01/19 20:30:00,40.4,-1.3
2023/01/19 20:40:00,40.4,-1.4
2023/01/19 20:50:00,40.3,-1.4
2023/01/19 21:00:00,40.3,-2.1
2023/01/19 21:10:00,40.3,-2.1
2023/01/19 21:20:00,40.3,-2.5
2023/01/19 21:30:00,40.3,-2.8
2023/01/19 21:40:00,40.3,-2.6
2023/01/19 21:50:00,40.3,-2.3
2023/01/19 22:00:00,40.3,-2.4
2023/01/19 22:10:00,40.3,-1.6
2023/01/19 22:20:00,40.3,-1.8
2023/01/19 22:30:00,40.3,-1.4
2023/01/19 22:40:00,40.2,-1.5
2023/01/19 22:50:00,40.3,-1.3
2023/01/19 23:00:00,40.3,-1.3
2023/01/19 23:10:00,40.3,-1.1
2023/01/19 23:20:00,40.2,-1.2
2023/01/19 23:30:00,40.2,-1.1
2023/01/19 23:40:00,40.2,-1.0
2023/01/19 23:50:00,40.3,-1.0
